Location: Lafig�re
(44.4503°N, 4.0357°E)
Time: 00:33:40
(UTC+00:00)

Cosmos 2150 Rocket - Pass Details

Date: 26 January 2021
Orbit: 748 x 808 km, 74.0° (Epoch: 06 March)

Event Time Altitude Azimuth Distance (km) Brightness Sun altitude
Rises 19:44:34 0° 212° (SSW) 3,182 7.5 -32.0°
Reaches altitude 10° 19:46:58 10° 217° (SW) 2,265 6.7 -32.4°
Enters shadow 19:49:56 33° 235° (SW) 1,243 5.3 -32.9°
